Tracking 19920 objects as of 14-Oct-2019
HD Live streaming from Space Station
objects crossing your sky now

THORAD DELTA 1 DEB

Track THORAD DELTA 1 DEB now!
10-day predictions


NORAD ID: 8566
Int'l Code: 1974-089DD
Perigee: 1,338.6 km
Apogee: 1,468.0 km
Inclination: 101.6 °
Period: 113.7 minutes
Semi major axis: 7774 km
RCS: 0.0546 m2 (small)
Launch date: November 15, 1974
Source: United States (US)
Launch site: AIR FORCE WESTERN TEST RANGE (AFWTR)

Note: This is SATELLITE DEBRIS
aabbcc
Your satellite tracking list
Your tracking list is empty




NASA's NSSDC Master Catalog

Two Line Element Set (TLE):
1  8566U 74089DD  19286.42046596 -.00000134 +00000-0 -45711-3 0  9996
2  8566 101.5988 347.2905 0083261 259.4506 168.4293 12.66514154073233
Source of the keplerian elements: AFSPC